Regional Weather Roundup
Issued by NWS Midland/Odessa, TX

Skip options and go directly to product.
Home | Oldest Version | Previous Version | Current Version | All | Graphics & Text | Save Text | Print | Product List | Glossary On

Skip product version selection by date and time.   
818
ASUS44 KMAF 012010
RWRMAF
MIDLAND AREA WEATHER ROUNDUP
NATIONAL WEATHER SERVICE MIDLAND TX
300 PM CDT WED OCT 01 2014

...IN SOUTHWEST TEXAS AND SOUTHEAST NEW MEXICO...

CITY           SKY/WX    TMP DP  RH WIND       PRES   REMARKS
ALPINE         SUNNY     85  47  26 SW7       29.98F
ANDREWS        FAIR      88  46  23 SW8       29.82F
ARTESIA        NOT AVBL
BIG SPRING     SUNNY     94  55  26 SW7       29.80F
CARLSBAD       SUNNY     85  46  25 VRB3      29.81F
DRYDEN           N/A     93  61  34 S7        29.77F
FORT STOCKTON  SUNNY     91  46  21 VRB5      29.83F
GUAD PASS      SUNNY     76  36  23 W31G43    29.96F
HOBBS          SUNNY     82  41  23 SW9       29.85F
MARFA          SUNNY     82  43  24 SW13G18   29.99F
MIDLAND AIRPK  SUNNY     90  48  23 W9        29.81F
MIDLAND INTL   SUNNY     90  50  25 W6        29.80F
ODESSA         SUNNY     88  49  25 W10       29.82F
PECOS          SUNNY     90  49  24 W7        29.79F
PRESIDIO       FAIR      91  46  20 W8        29.83F
SEMINOLE       SUNNY     85  40  20 SW9G21    29.83F
SNYDER         SUNNY     87  61  41 SW7       29.78F
WINK           SUNNY     88  47  24 W12       29.80F
$$
...OTHER STATIONS IN TEXAS...

CITY           SKY/WX    TMP DP  RH WIND       PRES   REMARKS
ABILENE        SUNNY     93  66  40 SW13      29.76F
AMARILLO       SUNNY     80  41  24 S5        29.81F
AUSTIN         PTSUNNY   91  69  48 S8        29.76F
BROWNSVILLE    MOSUNNY   89  81  77 SE17G23   29.77F HX 108
CORPUS CHRISTI MOSUNNY   88  75  65 SE10      29.76F
DALLAS FTW     MOSUNNY   92  67  43 S14G25    29.74F
DEL RIO        SUNNY     91  67  44 SE13      29.73F
EL PASO        SUNNY     83  31  15 SW16G25   29.90F
HOUSTON INT    PTSUNNY   92  72  51 S9        29.78F
LUBBOCK        SUNNY     85  53  33 SW16      29.80F
SAN ANGELO     SUNNY     94  63  35 S15G21    29.76F
SAN ANTONIO    MOSUNNY   90  68  48 S9G17     29.78F
WACO           SUNNY     92  68  45 S14       29.76F
WICHITA FALLS  NOT AVBL
$$
...OTHER LOCATIONS IN NEW MEXICO...

CITY           SKY/WX    TMP DP  RH WIND       PRES   REMARKS
ALAMAGORDO     SUNNY     81  36  19 W6        29.91F
ALBUQUERQUE    MOSUNNY   74  32  21 SW9G20    29.93F
CANNON AFB     SUNNY     80  38  22 SW6G17    29.85F
CLOVIS           N/A     79  41  25 SW8       29.87F
HOLLOMAN AFB   SUNNY     80  34  19 SE5       29.88F
ROSWELL        SUNNY     81  41  24 VRB7      29.84F
RUIDOSO        SUNNY     72  32  23 SW3       30.03F
SANTA FE       SUNNY     71  30  21 W12G23    29.96F
TRUTH OR CONSE SUNNY     78  32  18 S12       29.90F
TUCUMCARI      SUNNY     80  34  19 S3        29.81F
$$

USA.gov is the U.S. government's official web portal to all federal, state and local government web resources and services.